Location: Arcones
(41.1182°N, 3.7238°W)
Time: 22:28:01
(UTC+00:00)

YAOGAN 1 - Visible Passes

Search period start: 14 March 2026 00:00
Search period end: 24 March 2026 00:00
Orbit: 604 x 607 km, 97.8° (Epoch: 14 March)

Date Brightness Start Highest point End Pass type
(mag) Time Alt. Az. Time Alt. Az. Time Alt. Az.
14 Mar 4.3 19:17:26 10° SSW 19:21:19 35° W 19:25:14 10° NNW visible
15 Mar 4.9 19:30:37 10° SSW 19:34:08 25° W 19:37:43 10° NW visible
16 Mar 5.5 19:44:00 10° SW 19:47:00 19° W 19:50:01 10° NW visible
17 Mar 5.7 19:57:45 10° WSW 19:59:52 13° W 20:02:00 10° WNW visible
19 Mar 2.7 18:44:58 10° S 18:49:13 82° WSW 18:53:29 10° NNW visible
20 Mar 3.3 18:57:47 10° S 19:01:58 58° W 19:06:11 10° NNW visible
21 Mar 4.0 19:10:44 10° S 19:14:44 41° W 19:18:47 10° NNW visible
22 Mar 4.7 19:23:49 10° SSW 19:27:32 30° W 19:31:18 10° NW visible
23 Mar 5.2 19:37:05 10° SW 19:40:22 22° W 19:43:41 10° NW visible
